iso_date,epoch_date,Year,Hour,Min,DOY,POS_DOY,Lat,Lon,BP,Ts,Ta,has_bp,has_ts,has_ta,BuoyID,Buoy_Type,Buoy_Owner,Logistics,Hemisphere
2013-09-23T23:58:33Z,1379980714,2013,23,59,266.999,225.0,83.9085,-34.439,1005.72,-999.00,-6.78,yes,no,yes,300234060522180,IMB,CRREL,unknown,North
2013-09-24T01:00:28Z,1379984429,2013,1,0,267.042,225.0,83.9085,-34.439,1006.26,-999.00,-7.2,yes,no,yes,300234060522180,IMB,CRREL,unknown,North
2013-09-24T01:59:31Z,1379987971,2013,2,0,267.083,225.0,83.9085,-34.439,1006.4,-999.00,-8.29,yes,no,yes,300234060522180,IMB,CRREL,unknown,North
2013-09-24T03:00:00Z,1379991600,2013,3,0,267.125,267.125,74.7444,-150.4336,1006.67,-999.00,-7.26,yes,no,yes,300234060522180,IMB,CRREL,unknown,North
2013-09-24T04:00:28Z,1379995229,2013,4,0,267.167,267.125,74.7444,-150.4336,1006.87,-999.00,-6.77,yes,no,yes,300234060522180,IMB,CRREL,unknown,North
2013-09-24T04:59:31Z,1379998771,2013,5,0,267.208,267.125,74.7444,-150.4336,1007.08,-999.00,-6.68,yes,no,yes,300234060522180,IMB,CRREL,unknown,North
2013-09-24T06:00:00Z,1380002400,2013,6,0,267.25,267.125,74.7444,-150.4336,1007.35,-999.00,-6.03,yes,no,yes,300234060522180,IMB,CRREL,unknown,North
2013-09-24T07:00:28Z,1380006029,2013,7,0,267.292,267.292,74.7531,-150.4569,1007.69,-999.00,-4.77,yes,no,yes,300234060522180,IMB,CRREL,unknown,North
2013-09-24T07:59:31Z,1380009571,2013,8,0,267.333,267.292,74.7531,-150.4569,1008.16,-999.00,-4.04,yes,no,yes,300234060522180,IMB,CRREL,unknown,North
2013-09-24T09:00:00Z,1380013200,2013,9,0,267.375,267.292,74.7531,-150.4569,1008.71,-999.00,-4.39,yes,no,yes,300234060522180,IMB,CRREL,unknown,North
2013-09-24T10:00:28Z,1380016829,2013,10,0,267.417,267.292,74.7531,-150.4569,1008.98,-999.00,-4.17,yes,no,yes,300234060522180,IMB,CRREL,unknown,North
2013-09-24T10:59:31Z,1380020371,2013,11,0,267.458,267.458,74.7589,-150.4373,1008.98,-999.00,-4.02,yes,no,yes,300234060522180,IMB,CRREL,unknown,North
2013-09-24T12:00:00Z,1380024000,2013,12,0,267.5,267.458,74.7589,-150.4373,1009.25,-999.00,-3.91,yes,no,yes,300234060522180,IMB,CRREL,unknown,North
2013-09-24T13:00:28Z,1380027629,2013,13,0,267.542,267.458,74.7589,-150.4373,1009.52,-999.00,-4.07,yes,no,yes,300234060522180,IMB,CRREL,unknown,North
2013-09-24T13:59:31Z,1380031171,2013,14,0,267.583,267.458,74.7589,-150.4373,1009.8,-999.00,-4.26,yes,no,yes,300234060522180,IMB,CRREL,unknown,North
2013-09-24T15:00:00Z,1380034800,2013,15,0,267.625,267.625,74.7551,-150.4416,1009.93,-999.00,-4.23,yes,no,yes,300234060522180,IMB,CRREL,unknown,North
2013-09-24T16:00:28Z,1380038429,2013,16,0,267.667,267.625,74.7551,-150.4416,1010.07,-999.00,-4.12,yes,no,yes,300234060522180,IMB,CRREL,unknown,North
2013-09-24T16:59:31Z,1380041971,2013,17,0,267.708,267.625,74.7551,-150.4416,1009.93,-999.00,-4.1,yes,no,yes,300234060522180,IMB,CRREL,unknown,North
2013-09-24T18:00:00Z,1380045600,2013,18,0,267.75,267.625,74.7551,-150.4416,1010.07,-999.00,-4.13,yes,no,yes,300234060522180,IMB,CRREL,unknown,North
2013-09-24T19:00:28Z,1380049229,2013,19,0,267.792,267.792,74.7571,-150.4701,1010.21,-999.00,-3.75,yes,no,yes,300234060522180,IMB,CRREL,unknown,North
2013-09-24T19:59:31Z,1380052771,2013,20,0,267.833,267.792,74.7571,-150.4701,1010.07,-999.00,-3.62,yes,no,yes,300234060522180,IMB,CRREL,unknown,North
2013-09-24T21:00:00Z,1380056400,2013,21,0,267.875,267.792,74.7571,-150.4701,1010.06,-999.00,-3.91,yes,no,yes,300234060522180,IMB,CRREL,unknown,North
2013-09-24T22:00:28Z,1380060029,2013,22,0,267.917,267.792,74.7571,-150.4701,1010.13,-999.00,-4.3,yes,no,yes,300234060522180,IMB,CRREL,unknown,North
2013-09-24T22:59:31Z,1380063571,2013,23,0,267.958,267.958,74.7625,-150.4563,1010.21,-999.00,-4.13,yes,no,yes,300234060522180,IMB,CRREL,unknown,North
2013-09-24T23:58:33Z,1380067114,2013,23,59,267.999,267.958,74.7625,-150.4563,1010.06,-999.00,-4.06,yes,no,yes,300234060522180,IMB,CRREL,unknown,North
2013-09-25T01:00:28Z,1380070829,2013,1,0,268.042,267.958,74.7625,-150.4563,1010.07,-999.00,-4.81,yes,no,yes,300234060522180,IMB,CRREL,unknown,North
2013-09-25T01:59:31Z,1380074371,2013,2,0,268.083,267.958,74.7625,-150.4563,1009.78,-999.00,-4.81,yes,no,yes,300234060522180,IMB,CRREL,unknown,North
2013-09-25T03:00:00Z,1380078000,2013,3,0,268.125,268.125,74.7651,-150.4454,1009.32,-999.00,-4.74,yes,no,yes,300234060522180,IMB,CRREL,unknown,North
2013-09-25T04:00:28Z,1380081629,2013,4,0,268.167,268.125,74.7651,-150.4454,1008.98,-999.00,-4.32,yes,no,yes,300234060522180,IMB,CRREL,unknown,North
2013-09-25T04:59:31Z,1380085171,2013,5,0,268.208,268.125,74.7651,-150.4454,1008.7,-999.00,-4.35,yes,no,yes,300234060522180,IMB,CRREL,unknown,North
2013-09-25T06:00:00Z,1380088800,2013,6,0,268.25,268.125,74.7651,-150.4454,1008.84,-999.00,-4.61,yes,no,yes,300234060522180,IMB,CRREL,unknown,North
2013-09-25T07:00:28Z,1380092429,2013,7,0,268.292,268.292,74.7787,-150.4594,1008.57,-999.00,-5.17,yes,no,yes,300234060522180,IMB,CRREL,unknown,North
2013-09-25T07:59:31Z,1380095971,2013,8,0,268.333,268.292,74.7787,-150.4594,1007.89,-999.00,-3.86,yes,no,yes,300234060522180,IMB,CRREL,unknown,North
2013-09-25T09:00:00Z,1380099600,2013,9,0,268.375,268.292,74.7787,-150.4594,1007.48,-999.00,-4.3,yes,no,yes,300234060522180,IMB,CRREL,unknown,North
2013-09-25T10:00:28Z,1380103229,2013,10,0,268.417,268.292,74.7787,-150.4594,1007.01,-999.00,-3.62,yes,no,yes,300234060522180,IMB,CRREL,unknown,North
2013-09-25T10:59:31Z,1380106771,2013,11,0,268.458,268.458,74.7982,-150.4698,1006.8,-999.00,-3.4,yes,no,yes,300234060522180,IMB,CRREL,unknown,North
2013-09-25T12:00:00Z,1380110400,2013,12,0,268.5,268.458,74.7982,-150.4698,1007.0,-999.00,-3.47,yes,no,yes,300234060522180,IMB,CRREL,unknown,North
2013-09-25T13:00:28Z,1380114029,2013,13,0,268.542,268.458,74.7982,-150.4698,1007.15,-999.00,-3.03,yes,no,yes,300234060522180,IMB,CRREL,unknown,North
2013-09-25T13:59:31Z,1380117571,2013,14,0,268.583,268.458,74.7982,-150.4698,1007.21,-999.00,-3.48,yes,no,yes,300234060522180,IMB,CRREL,unknown,North
2013-09-25T15:00:00Z,1380121200,2013,15,0,268.625,268.625,74.808,-150.4489,1006.8,-999.00,-3.77,yes,no,yes,300234060522180,IMB,CRREL,unknown,North
2013-09-25T16:00:28Z,1380124829,2013,16,0,268.667,268.625,74.808,-150.4489,1006.67,-999.00,-4.88,yes,no,yes,300234060522180,IMB,CRREL,unknown,North
2013-09-25T16:59:31Z,1380128371,2013,17,0,268.708,268.625,74.808,-150.4489,1006.26,-999.00,-4.85,yes,no,yes,300234060522180,IMB,CRREL,unknown,North
2013-09-25T18:00:00Z,1380132000,2013,18,0,268.75,268.625,74.808,-150.4489,1006.12,-999.00,-7.2,yes,no,yes,300234060522180,IMB,CRREL,unknown,North
2013-09-25T19:00:28Z,1380135629,2013,19,0,268.792,268.792,74.8168,-150.4874,1005.85,-999.00,-6.01,yes,no,yes,300234060522180,IMB,CRREL,unknown,North
2013-09-25T19:59:31Z,1380139171,2013,20,0,268.833,268.792,74.8168,-150.4874,1005.72,-999.00,-4.21,yes,no,yes,300234060522180,IMB,CRREL,unknown,North
2013-09-25T21:00:00Z,1380142800,2013,21,0,268.875,268.792,74.8168,-150.4874,1005.44,-999.00,-3.25,yes,no,yes,300234060522180,IMB,CRREL,unknown,North
2013-09-25T22:00:28Z,1380146429,2013,22,0,268.917,268.792,74.8168,-150.4874,1005.17,-999.00,-3.27,yes,no,yes,300234060522180,IMB,CRREL,unknown,North
2013-09-25T22:59:31Z,1380149971,2013,23,0,268.958,268.958,74.8426,-150.5279,1004.82,-999.00,-3.68,yes,no,yes,300234060522180,IMB,CRREL,unknown,North
2013-09-25T23:58:33Z,1380153514,2013,23,59,268.999,268.958,74.8426,-150.5279,1004.28,-999.00,-3.39,yes,no,yes,300234060522180,IMB,CRREL,unknown,North
2013-09-26T01:00:28Z,1380157229,2013,1,0,269.042,268.958,74.8426,-150.5279,1003.81,-999.00,-3.53,yes,no,yes,300234060522180,IMB,CRREL,unknown,North
2013-09-26T01:59:31Z,1380160771,2013,2,0,269.083,268.958,74.8426,-150.5279,1002.98,-999.00,-3.58,yes,no,yes,300234060522180,IMB,CRREL,unknown,North
2013-09-26T03:00:00Z,1380164400,2013,3,0,269.125,269.125,74.8529,-150.5436,1002.31,-999.00,-3.88,yes,no,yes,300234060522180,IMB,CRREL,unknown,North
2013-09-26T04:00:28Z,1380168029,2013,4,0,269.167,269.125,74.8529,-150.5436,1001.5,-999.00,-3.93,yes,no,yes,300234060522180,IMB,CRREL,unknown,North
2013-09-26T04:59:31Z,1380171571,2013,5,0,269.208,269.125,74.8529,-150.5436,1001.09,-999.00,-4.23,yes,no,yes,300234060522180,IMB,CRREL,unknown,North
2013-09-26T06:00:00Z,1380175200,2013,6,0,269.25,269.125,74.8529,-150.5436,1000.41,-999.00,-4.37,yes,no,yes,300234060522180,IMB,CRREL,unknown,North
2013-09-26T07:00:28Z,1380178829,2013,7,0,269.292,269.292,74.8548,-150.6284,999.72,-999.00,-4.44,yes,no,yes,300234060522180,IMB,CRREL,unknown,North
2013-09-26T07:59:31Z,1380182371,2013,8,0,269.333,269.292,74.8548,-150.6284,999.25,-999.00,-4.48,yes,no,yes,300234060522180,IMB,CRREL,unknown,North
2013-09-26T09:00:00Z,1380186000,2013,9,0,269.375,269.292,74.8548,-150.6284,998.7,-999.00,-4.7,yes,no,yes,300234060522180,IMB,CRREL,unknown,North
2013-09-26T10:00:28Z,1380189629,2013,10,0,269.417,269.292,74.8548,-150.6284,998.36,-999.00,-5.05,yes,no,yes,300234060522180,IMB,CRREL,unknown,North
2013-09-26T10:59:31Z,1380193171,2013,11,0,269.458,269.458,74.8654,-150.6569,998.09,-999.00,-5.68,yes,no,yes,300234060522180,IMB,CRREL,unknown,North
2013-09-26T12:00:00Z,1380196800,2013,12,0,269.5,269.458,74.8654,-150.6569,997.82,-999.00,-6.84,yes,no,yes,300234060522180,IMB,CRREL,unknown,North
2013-09-26T13:00:28Z,1380200429,2013,13,0,269.542,269.458,74.8654,-150.6569,997.75,-999.00,-7.09,yes,no,yes,300234060522180,IMB,CRREL,unknown,North
2013-09-26T13:59:31Z,1380203971,2013,14,0,269.583,269.458,74.8654,-150.6569,997.55,-999.00,-6.1,yes,no,yes,300234060522180,IMB,CRREL,unknown,North
2013-09-26T15:00:00Z,1380207600,2013,15,0,269.625,269.625,74.8592,-150.6286,997.68,-999.00,-5.21,yes,no,yes,300234060522180,IMB,CRREL,unknown,North
2013-09-26T16:00:28Z,1380211229,2013,16,0,269.667,269.625,74.8592,-150.6286,997.81,-999.00,-5.52,yes,no,yes,300234060522180,IMB,CRREL,unknown,North
2013-09-26T16:59:31Z,1380214771,2013,17,0,269.708,269.625,74.8592,-150.6286,998.22,-999.00,-5.32,yes,no,yes,300234060522180,IMB,CRREL,unknown,North
2013-09-26T18:00:00Z,1380218400,2013,18,0,269.75,269.625,74.8592,-150.6286,998.3,-999.00,-4.61,yes,no,yes,300234060522180,IMB,CRREL,unknown,North
2013-09-26T19:00:28Z,1380222029,2013,19,0,269.792,269.792,74.8484,-150.6263,998.71,-999.00,-3.84,yes,no,yes,300234060522180,IMB,CRREL,unknown,North
2013-09-26T19:59:31Z,1380225571,2013,20,0,269.833,269.792,74.8484,-150.6263,999.46,-999.00,-4.17,yes,no,yes,300234060522180,IMB,CRREL,unknown,North
2013-09-26T21:00:00Z,1380229200,2013,21,0,269.875,269.792,74.8484,-150.6263,1000.27,-999.00,-4.79,yes,no,yes,300234060522180,IMB,CRREL,unknown,North
2013-09-26T22:00:28Z,1380232829,2013,22,0,269.917,269.792,74.8484,-150.6263,1000.88,-999.00,-5.35,yes,no,yes,300234060522180,IMB,CRREL,unknown,North
2013-09-26T22:59:31Z,1380236371,2013,23,0,269.958,269.958,74.8486,-150.5725,1001.49,-999.00,-5.86,yes,no,yes,300234060522180,IMB,CRREL,unknown,North
2013-09-26T23:58:33Z,1380239914,2013,23,59,269.999,269.958,74.8486,-150.5725,1001.77,-999.00,-4.95,yes,no,yes,300234060522180,IMB,CRREL,unknown,North
2013-09-27T01:00:28Z,1380243629,2013,1,0,270.042,269.958,74.8486,-150.5725,1001.91,-999.00,-4.2,yes,no,yes,300234060522180,IMB,CRREL,unknown,North
2013-09-27T01:59:31Z,1380247171,2013,2,0,270.083,269.958,74.8486,-150.5725,1002.31,-999.00,-4.57,yes,no,yes,300234060522180,IMB,CRREL,unknown,North
2013-09-27T03:00:00Z,1380250800,2013,3,0,270.125,270.125,74.8389,-150.5234,1002.45,-999.00,-4.48,yes,no,yes,300234060522180,IMB,CRREL,unknown,North
2013-09-27T04:00:28Z,1380254429,2013,4,0,270.167,270.125,74.8389,-150.5234,1002.71,-999.00,-3.96,yes,no,yes,300234060522180,IMB,CRREL,unknown,North
2013-09-27T04:59:31Z,1380257971,2013,5,0,270.208,270.125,74.8389,-150.5234,1003.06,-999.00,-5.04,yes,no,yes,300234060522180,IMB,CRREL,unknown,North
2013-09-27T06:00:00Z,1380261600,2013,6,0,270.25,270.125,74.8389,-150.5234,1003.54,-999.00,-4.5,yes,no,yes,300234060522180,IMB,CRREL,unknown,North
2013-09-27T07:00:28Z,1380265229,2013,7,0,270.292,270.292,74.8362,-150.5177,1003.94,-999.00,-3.93,yes,no,yes,300234060522180,IMB,CRREL,unknown,North
2013-09-27T07:59:31Z,1380268771,2013,8,0,270.333,270.292,74.8362,-150.5177,1004.21,-999.00,-4.06,yes,no,yes,300234060522180,IMB,CRREL,unknown,North
2013-09-27T09:00:00Z,1380272400,2013,9,0,270.375,270.292,74.8362,-150.5177,1004.55,-999.00,-4.17,yes,no,yes,300234060522180,IMB,CRREL,unknown,North
2013-09-27T10:00:28Z,1380276029,2013,10,0,270.417,270.292,74.8362,-150.5177,1004.69,-999.00,-4.17,yes,no,yes,300234060522180,IMB,CRREL,unknown,North
2013-09-27T10:59:31Z,1380279571,2013,11,0,270.458,270.458,74.8515,-150.4967,1004.7,-999.00,-4.92,yes,no,yes,300234060522180,IMB,CRREL,unknown,North
2013-09-27T12:00:00Z,1380283200,2013,12,0,270.5,270.458,74.8515,-150.4967,1005.03,-999.00,-4.52,yes,no,yes,300234060522180,IMB,CRREL,unknown,North
2013-09-27T13:00:28Z,1380286829,2013,13,0,270.542,270.458,74.8515,-150.4967,1005.3,-999.00,-5.25,yes,no,yes,300234060522180,IMB,CRREL,unknown,North
2013-09-27T13:59:31Z,1380290371,2013,14,0,270.583,270.458,74.8515,-150.4967,1005.58,-999.00,-4.13,yes,no,yes,300234060522180,IMB,CRREL,unknown,North
2013-09-27T15:00:00Z,1380294000,2013,15,0,270.625,270.625,74.8607,-150.466,1005.85,-999.00,-3.75,yes,no,yes,300234060522180,IMB,CRREL,unknown,North
2013-09-27T16:00:28Z,1380297629,2013,16,0,270.667,270.625,74.8607,-150.466,1005.99,-999.00,-3.99,yes,no,yes,300234060522180,IMB,CRREL,unknown,North
2013-09-27T16:59:31Z,1380301171,2013,17,0,270.708,270.625,74.8607,-150.466,1006.39,-999.00,-4.48,yes,no,yes,300234060522180,IMB,CRREL,unknown,North
2013-09-27T18:00:00Z,1380304800,2013,18,0,270.75,270.625,74.8607,-150.466,1006.53,-999.00,-5.22,yes,no,yes,300234060522180,IMB,CRREL,unknown,North
2013-09-27T19:00:28Z,1380308429,2013,19,0,270.792,270.792,74.8724,-150.4766,1006.87,-999.00,-5.37,yes,no,yes,300234060522180,IMB,CRREL,unknown,North
2013-09-27T19:59:31Z,1380311971,2013,20,0,270.833,270.792,74.8724,-150.4766,1007.21,-999.00,-5.41,yes,no,yes,300234060522180,IMB,CRREL,unknown,North
2013-09-27T21:00:00Z,1380315600,2013,21,0,270.875,270.792,74.8724,-150.4766,1007.55,-999.00,-5.12,yes,no,yes,300234060522180,IMB,CRREL,unknown,North
2013-09-27T22:00:28Z,1380319229,2013,22,0,270.917,270.792,74.8724,-150.4766,1007.61,-999.00,-5.3,yes,no,yes,300234060522180,IMB,CRREL,unknown,North
2013-09-27T22:59:31Z,1380322771,2013,23,0,270.958,270.958,74.8906,-150.4811,1007.62,-999.00,-5.12,yes,no,yes,300234060522180,IMB,CRREL,unknown,North
2013-09-27T23:58:33Z,1380326314,2013,23,59,270.999,270.958,74.8906,-150.4811,1007.62,-999.00,-5.42,yes,no,yes,300234060522180,IMB,CRREL,unknown,North
2013-09-28T01:00:28Z,1380330029,2013,1,0,271.042,270.958,74.8906,-150.4811,1007.48,-999.00,-5.78,yes,no,yes,300234060522180,IMB,CRREL,unknown,North
2013-09-28T01:59:31Z,1380333571,2013,2,0,271.083,270.958,74.8906,-150.4811,1007.62,-999.00,-6.08,yes,no,yes,300234060522180,IMB,CRREL,unknown,North
2013-09-28T03:00:00Z,1380337200,2013,3,0,271.125,271.125,74.8955,-150.4862,1007.35,-999.00,-6.44,yes,no,yes,300234060522180,IMB,CRREL,unknown,North
2013-09-28T04:00:28Z,1380340829,2013,4,0,271.167,271.125,74.8955,-150.4862,1007.35,-999.00,-7.59,yes,no,yes,300234060522180,IMB,CRREL,unknown,North
2013-09-28T04:59:31Z,1380344371,2013,5,0,271.208,271.125,74.8955,-150.4862,1007.35,-999.00,-7.34,yes,no,yes,300234060522180,IMB,CRREL,unknown,North
2013-09-28T06:00:00Z,1380348000,2013,6,0,271.25,271.125,74.8955,-150.4862,1007.34,-999.00,-8.06,yes,no,yes,300234060522180,IMB,CRREL,unknown,North
2013-09-28T07:00:28Z,1380351629,2013,7,0,271.292,271.292,74.9014,-150.5488,1007.21,-999.00,-8.11,yes,no,yes,300234060522180,IMB,CRREL,unknown,North
2013-09-28T07:59:31Z,1380355171,2013,8,0,271.333,271.292,74.9014,-150.5488,1007.01,-999.00,-7.9,yes,no,yes,300234060522180,IMB,CRREL,unknown,North
2013-09-28T09:00:00Z,1380358800,2013,9,0,271.375,271.292,74.9014,-150.5488,1006.8,-999.00,-7.86,yes,no,yes,300234060522180,IMB,CRREL,unknown,North
2013-09-28T10:00:28Z,1380362429,2013,10,0,271.417,271.292,74.9014,-150.5488,1006.8,-999.00,-7.81,yes,no,yes,300234060522180,IMB,CRREL,unknown,North
2013-09-28T10:59:31Z,1380365971,2013,11,0,271.458,271.458,74.9176,-150.5801,1006.8,-999.00,-7.59,yes,no,yes,300234060522180,IMB,CRREL,unknown,North
2013-09-28T12:00:00Z,1380369600,2013,12,0,271.5,271.458,74.9176,-150.5801,1006.59,-999.00,-7.7,yes,no,yes,300234060522180,IMB,CRREL,unknown,North
2013-09-28T13:00:28Z,1380373229,2013,13,0,271.542,271.458,74.9176,-150.5801,1006.53,-999.00,-7.9,yes,no,yes,300234060522180,IMB,CRREL,unknown,North
2013-09-28T13:59:31Z,1380376771,2013,14,0,271.583,271.458,74.9176,-150.5801,1006.53,-999.00,-8.18,yes,no,yes,300234060522180,IMB,CRREL,unknown,North
2013-09-28T15:00:00Z,1380380400,2013,15,0,271.625,271.625,74.9197,-150.5808,1006.4,-999.00,-8.08,yes,no,yes,300234060522180,IMB,CRREL,unknown,North
2013-09-28T16:00:28Z,1380384029,2013,16,0,271.667,271.625,74.9197,-150.5808,1006.39,-999.00,-7.93,yes,no,yes,300234060522180,IMB,CRREL,unknown,North
2013-09-28T16:59:31Z,1380387571,2013,17,0,271.708,271.625,74.9197,-150.5808,1006.12,-999.00,-7.7,yes,no,yes,300234060522180,IMB,CRREL,unknown,North
2013-09-28T18:00:00Z,1380391200,2013,18,0,271.75,271.625,74.9197,-150.5808,1005.98,-999.00,-7.27,yes,no,yes,300234060522180,IMB,CRREL,unknown,North
2013-09-28T19:00:28Z,1380394829,2013,19,0,271.792,271.792,74.9145,-150.6232,1005.78,-999.00,-7.15,yes,no,yes,300234060522180,IMB,CRREL,unknown,North
2013-09-28T19:59:31Z,1380398371,2013,20,0,271.833,271.792,74.9145,-150.6232,1005.85,-999.00,-7.13,yes,no,yes,300234060522180,IMB,CRREL,unknown,North
2013-09-28T21:00:00Z,1380402000,2013,21,0,271.875,271.792,74.9145,-150.6232,1005.71,-999.00,-7.09,yes,no,yes,300234060522180,IMB,CRREL,unknown,North
2013-09-28T22:00:28Z,1380405629,2013,22,0,271.917,271.792,74.9145,-150.6232,1005.85,-999.00,-7.03,yes,no,yes,300234060522180,IMB,CRREL,unknown,North
2013-09-28T22:59:31Z,1380409171,2013,23,0,271.958,271.958,74.9159,-150.6425,1005.71,-999.00,-6.95,yes,no,yes,300234060522180,IMB,CRREL,unknown,North
2013-09-28T23:58:33Z,1380412714,2013,23,59,271.999,271.958,74.9159,-150.6425,1005.85,-999.00,-7.09,yes,no,yes,300234060522180,IMB,CRREL,unknown,North
2013-09-29T01:00:28Z,1380416429,2013,1,0,272.042,271.958,74.9159,-150.6425,1006.06,-999.00,-7.07,yes,no,yes,300234060522180,IMB,CRREL,unknown,North
2013-09-29T01:59:31Z,1380419971,2013,2,0,272.083,271.958,74.9159,-150.6425,1006.4,-999.00,-6.37,yes,no,yes,300234060522180,IMB,CRREL,unknown,North
2013-09-29T03:00:00Z,1380423600,2013,3,0,272.125,272.125,74.906,-150.6256,1006.53,-999.00,-5.94,yes,no,yes,300234060522180,IMB,CRREL,unknown,North
2013-09-29T04:00:28Z,1380427229,2013,4,0,272.167,272.125,74.906,-150.6256,1006.8,-999.00,-5.68,yes,no,yes,300234060522180,IMB,CRREL,unknown,North
2013-09-29T04:59:31Z,1380430771,2013,5,0,272.208,272.125,74.906,-150.6256,1007.08,-999.00,-5.36,yes,no,yes,300234060522180,IMB,CRREL,unknown,North
2013-09-29T06:00:00Z,1380434400,2013,6,0,272.25,272.125,74.906,-150.6256,1007.48,-999.00,-4.94,yes,no,yes,300234060522180,IMB,CRREL,unknown,North
2013-09-29T07:00:28Z,1380438029,2013,7,0,272.292,272.292,74.8917,-150.6409,1007.89,-999.00,-10.19,yes,no,yes,300234060522180,IMB,CRREL,unknown,North
2013-09-29T07:59:31Z,1380441571,2013,8,0,272.333,272.292,74.8917,-150.6409,1008.43,-999.00,-11.4,yes,no,yes,300234060522180,IMB,CRREL,unknown,North
2013-09-29T09:00:00Z,1380445200,2013,9,0,272.375,272.292,74.8917,-150.6409,1009.04,-999.00,-13.13,yes,no,yes,300234060522180,IMB,CRREL,unknown,North
2013-09-29T10:00:28Z,1380448829,2013,10,0,272.417,272.292,74.8917,-150.6409,1009.66,-999.00,-13.78,yes,no,yes,300234060522180,IMB,CRREL,unknown,North
2013-09-29T10:59:31Z,1380452371,2013,11,0,272.458,272.458,74.8868,-150.6503,1010.07,-999.00,-14.71,yes,no,yes,300234060522180,IMB,CRREL,unknown,North
2013-09-29T12:00:00Z,1380456000,2013,12,0,272.5,272.458,74.8868,-150.6503,1010.48,-999.00,-15.47,yes,no,yes,300234060522180,IMB,CRREL,unknown,North
2013-09-29T13:00:28Z,1380459629,2013,13,0,272.542,272.458,74.8868,-150.6503,1011.02,-999.00,-15.61,yes,no,yes,300234060522180,IMB,CRREL,unknown,North
2013-09-29T13:59:31Z,1380463171,2013,14,0,272.583,272.458,74.8868,-150.6503,1011.57,-999.00,-14.78,yes,no,yes,300234060522180,IMB,CRREL,unknown,North
2013-09-29T15:00:00Z,1380466800,2013,15,0,272.625,272.625,74.8795,-150.6333,1012.38,-999.00,-15.69,yes,no,yes,300234060522180,IMB,CRREL,unknown,North
2013-09-29T16:00:28Z,1380470429,2013,16,0,272.667,272.625,74.8795,-150.6333,1012.79,-999.00,-16.24,yes,no,yes,300234060522180,IMB,CRREL,unknown,North
2013-09-29T16:59:31Z,1380473971,2013,17,0,272.708,272.625,74.8795,-150.6333,1013.2,-999.00,-16.34,yes,no,yes,300234060522180,IMB,CRREL,unknown,North
2013-09-29T18:00:00Z,1380477600,2013,18,0,272.75,272.625,74.8795,-150.6333,1013.61,-999.00,-14.78,yes,no,yes,300234060522180,IMB,CRREL,unknown,North
2013-09-29T19:00:28Z,1380481229,2013,19,0,272.792,272.792,74.8693,-150.6541,1014.02,-999.00,-13.41,yes,no,yes,300234060522180,IMB,CRREL,unknown,North
2013-09-29T19:59:31Z,1380484771,2013,20,0,272.833,272.792,74.8693,-150.6541,1014.77,-999.00,-12.31,yes,no,yes,300234060522180,IMB,CRREL,unknown,North
2013-09-29T21:00:00Z,1380488400,2013,21,0,272.875,272.792,74.8693,-150.6541,1015.11,-999.00,-9.26,yes,no,yes,300234060522180,IMB,CRREL,unknown,North
2013-09-29T22:00:28Z,1380492029,2013,22,0,272.917,272.792,74.8693,-150.6541,1015.51,-999.00,-11.11,yes,no,yes,300234060522180,IMB,CRREL,unknown,North
2013-09-29T22:59:31Z,1380495571,2013,23,0,272.958,272.958,74.8705,-150.665,1015.79,-999.00,-11.65,yes,no,yes,300234060522180,IMB,CRREL,unknown,North
2013-09-29T23:58:33Z,1380499114,2013,23,59,272.999,272.958,74.8705,-150.665,1016.06,-999.00,-10.72,yes,no,yes,300234060522180,IMB,CRREL,unknown,North
2013-09-30T01:00:28Z,1380502829,2013,1,0,273.042,272.958,74.8705,-150.665,1016.47,-999.00,-12.14,yes,no,yes,300234060522180,IMB,CRREL,unknown,North
2013-09-30T01:59:31Z,1380506371,2013,2,0,273.083,272.958,74.8705,-150.665,1016.94,-999.00,-12.94,yes,no,yes,300234060522180,IMB,CRREL,unknown,North
2013-09-30T03:00:00Z,1380510000,2013,3,0,273.125,273.125,74.8673,-150.6411,1017.28,-999.00,-14.03,yes,no,yes,300234060522180,IMB,CRREL,unknown,North
2013-09-30T04:00:28Z,1380513629,2013,4,0,273.167,273.125,74.8673,-150.6411,1017.69,-999.00,-14.96,yes,no,yes,300234060522180,IMB,CRREL,unknown,North
2013-09-30T04:59:31Z,1380517171,2013,5,0,273.208,273.125,74.8673,-150.6411,1017.83,-999.00,-14.69,yes,no,yes,300234060522180,IMB,CRREL,unknown,North
2013-09-30T06:00:00Z,1380520800,2013,6,0,273.25,273.125,74.8673,-150.6411,1018.1,-999.00,-15.17,yes,no,yes,300234060522180,IMB,CRREL,unknown,North
2013-09-30T07:00:28Z,1380524429,2013,7,0,273.292,273.292,74.8643,-150.6554,1018.24,-999.00,-16.53,yes,no,yes,300234060522180,IMB,CRREL,unknown,North
2013-09-30T07:59:31Z,1380527971,2013,8,0,273.333,273.292,74.8643,-150.6554,1018.51,-999.00,-14.01,yes,no,yes,300234060522180,IMB,CRREL,unknown,North
2013-09-30T09:00:00Z,1380531600,2013,9,0,273.375,273.292,74.8643,-150.6554,1018.78,-999.00,-10.12,yes,no,yes,300234060522180,IMB,CRREL,unknown,North
2013-09-30T10:00:28Z,1380535229,2013,10,0,273.417,273.292,74.8643,-150.6554,1018.92,-999.00,-9.23,yes,no,yes,300234060522180,IMB,CRREL,unknown,North
2013-09-30T10:59:31Z,1380538771,2013,11,0,273.458,273.458,74.8722,-150.6629,1019.12,-999.00,-11.49,yes,no,yes,300234060522180,IMB,CRREL,unknown,North
2013-09-30T12:00:00Z,1380542400,2013,12,0,273.5,273.458,74.8722,-150.6629,1019.32,-999.00,-14.07,yes,no,yes,300234060522180,IMB,CRREL,unknown,North
2013-09-30T13:00:28Z,1380546029,2013,13,0,273.542,273.458,74.8722,-150.6629,1019.33,-999.00,-12.77,yes,no,yes,300234060522180,IMB,CRREL,unknown,North
2013-09-30T13:59:31Z,1380549571,2013,14,0,273.583,273.458,74.8722,-150.6629,1019.6,-999.00,-12.12,yes,no,yes,300234060522180,IMB,CRREL,unknown,North
2013-09-30T15:00:00Z,1380553200,2013,15,0,273.625,273.625,74.875,-150.6428,1019.73,-999.00,-9.68,yes,no,yes,300234060522180,IMB,CRREL,unknown,North
2013-09-30T16:00:28Z,1380556829,2013,16,0,273.667,273.625,74.875,-150.6428,1019.94,-999.00,-8.18,yes,no,yes,300234060522180,IMB,CRREL,unknown,North